Location: Buckeye Ditch
(40.9104°N, 122.9517°W)
Time: 12:58:37
(UTC+00:00)

Vanguard 2 Rocket - All Passes

Search period start: 18 May 2025 00:00
Search period end: 28 May 2025 00:00
Orbit: 554 x 3293 km, 32.9° (Epoch: 18 May)

Date Brightness Start Highest point End Pass type
(mag) Time Alt. Az. Time Alt. Az. Time Alt. Az.
18 May - 04:38:55 10° S 04:51:38 22° SE 05:02:01 10° ESE visible
18 May - 06:50:50 10° SW 07:07:03 42° SSE 07:17:38 10° E visible
18 May - 09:07:31 10° WSW 09:21:53 55° S 09:30:06 10° ESE visible
18 May - 11:25:16 10° W 11:35:15 42° SSW 11:41:10 10° SE visible
18 May - 13:43:44 10° WSW 13:46:40 13° SW 13:49:08 10° SSW daylight
19 May - 03:36:58 10° SSE 03:46:09 15° SE 03:54:28 10° ESE visible
19 May - 05:45:15 10° SSW 06:01:34 36° SSE 06:13:17 10° E visible
19 May - 08:00:44 10° WSW 08:16:57 54° S 08:26:38 10° E visible
19 May - 10:18:37 10° W 10:31:10 52° SSW 10:38:19 10° ESE visible
19 May - 12:36:33 10° W 12:43:26 24° SW 12:48:07 10° SSE daylight
20 May - 04:40:33 10° SSW 04:55:55 29° SSE 05:08:12 10° E visible
20 May - 06:54:13 10° SW 07:11:36 50° SSE 07:22:49 10° E visible
20 May - 09:11:41 10° WSW 09:26:37 58° S 09:35:09 10° ESE visible
20 May - 11:29:52 10° W 11:39:52 37° SSW 11:45:55 10° SE visible
21 May - 03:37:06 10° S 03:50:19 22° SE 04:01:57 10° E visible
21 May - 05:48:14 10° SW 06:05:58 44° SSE 06:18:35 10° E visible
21 May - 08:04:42 10° WSW 08:21:36 59° S 08:31:41 10° E visible
21 May - 10:23:00 10° W 10:35:50 49° SSW 10:43:13 10° SE visible
21 May - 12:41:45 10° W 12:47:47 19° SW 12:52:10 10° S daylight
22 May - 02:35:56 10° SSE 02:44:51 15° SE 02:53:23 10° ESE daylight
22 May - 04:43:01 10° SSW 05:00:09 37° SSE 05:13:45 10° E visible
22 May - 06:57:56 10° WSW 07:16:09 57° S 07:27:53 10° E visible
22 May - 09:15:57 10° W 09:31:17 58° S 09:40:07 10° ESE visible
22 May - 11:34:33 10° W 11:44:19 32° SSW 11:50:28 10° SSE visible
23 May - 03:38:49 10° SSW 03:54:21 30° SE 04:08:04 10° E visible
23 May - 05:51:38 10° SW 06:10:20 52° SSE 06:23:41 10° E visible
23 May - 08:08:49 10° WSW 08:26:12 62° S 08:36:40 10° ESE visible
23 May - 10:27:27 10° W 10:40:22 45° SSW 10:47:58 10° SE visible
23 May - 12:47:33 10° WSW 12:51:57 14° SW 12:55:30 10° SSW daylight
24 May - 02:36:00 10° S 02:48:45 21° SE 03:01:02 10° E daylight
24 May - 04:46:04 10° SW 05:04:20 45° SSE 05:18:58 10° E visible
24 May - 07:01:52 10° WSW 07:20:39 61° S 07:32:52 10° E visible
24 May - 09:20:15 10° W 09:35:52 55° SSW 09:44:59 10° ESE visible
24 May - 11:39:24 10° W 11:48:35 26° SW 11:54:41 10° SSE visible
25 May - 01:36:00 10° SSE 01:43:28 13° SE 01:51:00 10° ESE daylight
25 May - 03:41:22 10° SSW 03:58:21 37° SSE 04:13:33 10° E visible
25 May - 05:55:22 10° WSW 06:14:41 58° SSE 06:28:39 10° E visible
25 May - 08:13:01 10° W 08:30:46 62° S 08:41:34 10° ESE visible
25 May - 10:31:58 10° W 10:44:44 39° SSW 10:52:31 10° SE visible
26 May - 02:37:47 10° S 02:52:35 29° SE 03:07:09 10° E daylight
26 May - 04:49:32 10° SW 05:08:31 52° SSE 05:23:57 10° E visible
26 May - 07:05:58 10° WSW 07:25:07 64° S 07:37:46 10° ESE visible
26 May - 09:24:35 10° W 09:40:18 51° SSW 09:49:43 10° SE visible
26 May - 11:44:35 10° W 11:52:40 20° SW 11:58:26 10° S visible
27 May - 01:35:44 10° S 01:47:10 20° SE 01:59:09 10° E daylight
27 May - 03:44:30 10° SW 04:02:19 45° SSE 04:18:40 10° E visible
27 May - 05:59:20 10° WSW 06:19:02 63° S 06:33:32 10° E visible
27 May - 08:17:17 10° W 08:35:14 60° SSW 08:46:23 10° ESE visible
27 May - 10:36:35 10° W 10:48:55 33° SW 10:56:48 10° SSE visible
